Bradshaw AFB, HI

11:20 AM HST on November 14, 2019 (GMT -1000)
Bradshaw Army Air Field

Weather History for PHSF - September, 2019

Change the Weather History Date:

Friday, September 20, 2019

  Actual Average Record
Temperature  
Mean Temperature 59 °F -  
Max Temperature 69 °F 69 °F 75 °F (2004)
Min Temperature 49 °F 49 °F 42 °F (2016)
Degree Days  
Heating Degree Days 6    
Growing Degree Days 9 (Base 50)    
Moisture  
Dew Point 55 °F    
Average Humidity 84    
Maximum Humidity 96    
Minimum Humidity 56    
Precipitation  
Precipitation 0.22 in - - ()
Sea Level Pressure  
Sea Level Pressure 29.92 in    
Wind  
Wind Speed 7 mph (SSW)    
Max Wind Speed 14 mph    
Max Gust Speed 21 mph    
Visibility 8 miles    
Events Rain    
Averages and records for this station are not official NWS values.
T = Trace of Precipitation, MM = Missing Value Source: NWS Daily Summary

Daily Weather History Graph

Daily Weather History Graph

Search for Another Location

Airport or City:

Astronomy

Sep. 20, 2019 Rise Set
Actual Time 6:10 AM HST 6:20 PM HST
Civil Twilight 5:48 AM HST 6:42 PM HST
Nautical Twilight 5:23 AM HST 7:07 PM HST
Astronomical Twilight 4:57 AM HST 7:33 PM HST
Moon 11:05 PM HST (9/20) 11:41 AM HST (9/20)
Length of Visible Light 12h 53m
Length of Day
12h 09m
Waning Gibbous, 62% of the Moon is Illuminated
Sep 20
Waning Gibbous
Sep 21
Last Quarter
Sep 28
New
Oct 5
First Quarter
Oct 13
Full

Hourly Weather History & Observations

Time (HST) Temp. Dew Point Humidity Pressure Visibility Wind Dir Wind Speed Gust Speed Precip Events Conditions
12:58 AM 52.3 °F 50.2 °F 92% 29.90 in 10.0 mi SE 4.6 mph - N/A   Clear
1:58 AM 51.4 °F 48.6 °F 90% 29.89 in 10.0 mi SSE 5.8 mph - N/A   Clear
2:58 AM 49.8 °F 47.5 °F 92% 29.89 in 10.0 mi South 5.8 mph - N/A   Clear
3:58 AM 52.3 °F 50.7 °F 94% 29.87 in 10.0 mi SE 4.6 mph - N/A   Mostly Cloudy
4:58 AM 52.7 °F 50.9 °F 94% 29.88 in 10.0 mi South 6.9 mph 16.1 mph N/A   Mostly Cloudy
5:58 AM 53.4 °F 52.3 °F 96% 29.91 in 10.0 mi South 11.5 mph - N/A   Overcast
6:58 AM 53.8 °F 50.5 °F 89% 29.94 in 9.0 mi SSE 6.9 mph - N/A   Mostly Cloudy
7:58 AM 57.0 °F 51.1 °F 81% 29.95 in 9.0 mi South 3.5 mph - N/A   Mostly Cloudy
8:58 AM 62.4 °F 51.1 °F 66% 29.94 in 10.0 mi South 8.1 mph - N/A   Mostly Cloudy
9:58 AM 66.0 °F 50.0 °F 56% 29.92 in 10.0 mi SSW 9.2 mph - N/A   Partly Cloudy
10:58 AM 65.5 °F 56.1 °F 72% 29.91 in 10.0 mi SSW 8.1 mph 16.1 mph N/A   Clear
11:40 AM 69.8 °F 53.6 °F 56% 29.90 in 10.0 mi WNW 13.8 mph 20.7 mph N/A   Scattered Clouds
11:58 AM 69.1 °F 54.9 °F 60% 29.90 in 10.0 mi South 4.6 mph - N/A   Mostly Cloudy
12:58 PM 69.3 °F 57.0 °F 65% 29.90 in 10.0 mi South 13.8 mph - N/A   Mostly Cloudy
1:38 PM 69.8 °F 55.4 °F 60% 29.89 in 10.0 mi SSW 5.8 mph 16.1 mph N/A   Mostly Cloudy
1:43 PM 69.8 °F 55.4 °F 60% 29.89 in 10.0 mi SSW 10.4 mph 16.1 mph N/A   Mostly Cloudy
1:58 PM 69.1 °F 54.3 °F 59% 29.88 in 10.0 mi SSW 8.1 mph - N/A   Mostly Cloudy
2:33 PM 66.2 °F 59.0 °F 78% 29.89 in 10.0 mi NW 10.4 mph - N/A   Mostly Cloudy
2:43 PM 64.4 °F 59.0 °F 83% 29.91 in 9.0 mi NNW 10.4 mph - N/A   Overcast
2:44 PM 64.4 °F 59.0 °F 83% 29.91 in 9.0 mi NNW 11.5 mph - N/A Rain Light Rain
2:49 PM 64.4 °F 60.8 °F 88% 29.92 in 4.0 mi NNW 11.5 mph - N/A Rain Rain
2:54 PM 62.6 °F 60.8 °F 94% 29.91 in 2.5 mi NNW 9.2 mph - N/A Rain Light Rain
2:58 PM 62.6 °F 60.8 °F 94% 29.92 in 3.0 mi NW 10.4 mph - 0.05 in Rain Light Rain
3:08 PM 62.6 °F 60.8 °F 94% 29.91 in 9.0 mi NW 8.1 mph - N/A   Overcast
3:18 PM 62.6 °F 60.8 °F 94% 29.92 in 9.0 mi NW 9.2 mph - N/A   Overcast
3:33 PM 62.6 °F 59.0 °F 88% 29.92 in 9.0 mi NNW 6.9 mph - N/A   Overcast
3:53 PM 64.4 °F 57.2 °F 77% 29.89 in 9.0 mi WSW 9.2 mph - N/A   Mostly Cloudy
3:58 PM 63.3 °F 57.7 °F 82% 29.91 in 9.0 mi SSW 3.5 mph - 0.00 in   Mostly Cloudy
4:16 PM 62.6 °F 55.4 °F 77% 29.92 in 8.0 mi SW 4.6 mph - N/A Rain Light Rain
4:26 PM 60.8 °F 57.2 °F 88% 29.93 in 1.8 mi Calm Calm - N/A Rain Rain
4:31 PM 60.8 °F 59.0 °F 94% 29.93 in 1.0 mi Calm Calm - N/A Rain Rain
4:36 PM 59.0 °F 57.2 °F 94% 29.93 in 0.6 mi SSW 5.8 mph - N/A Rain Light Rain
4:46 PM 59.0 °F 57.2 °F 94% 29.92 in 1.2 mi South 3.5 mph - N/A Rain Light Rain
4:56 PM 60.8 °F 57.2 °F 88% 29.92 in 4.0 mi Calm Calm - N/A Rain Light Rain
4:58 PM 60.8 °F 57.2 °F 88% 29.92 in 4.0 mi Calm Calm - 0.17 in Rain Light Rain
5:00 PM 60.8 °F 57.2 °F 88% 29.93 in 5.0 mi Calm Calm - N/A   Scattered Clouds
5:10 PM 60.8 °F 57.2 °F 88% 29.93 in 7.0 mi Calm Calm - N/A   Mostly Cloudy
5:15 PM 60.8 °F 57.2 °F 88% 29.93 in 8.0 mi Calm Calm - N/A   Scattered Clouds
5:58 PM 59.9 °F 57.2 °F 91% 29.93 in 9.0 mi South 6.9 mph - 0.00 in   Partly Cloudy
6:38 PM 57.2 °F 53.6 °F 88% 29.96 in 9.0 mi South 8.1 mph - N/A Rain Light Rain
6:58 PM 57.4 °F 54.3 °F 90% 29.96 in 8.0 mi South 6.9 mph - 0.00 in Rain Light Rain
7:03 PM 57.2 °F 53.6 °F 88% 29.97 in 9.0 mi South 6.9 mph - N/A   Scattered Clouds
7:06 PM 57.2 °F 53.6 °F 88% 29.97 in 10.0 mi SSE 5.8 mph - N/A Rain Light Rain
7:26 PM 57.2 °F 53.6 °F 88% 29.96 in 9.0 mi South 12.7 mph - N/A   Scattered Clouds
7:58 PM 56.3 °F 54.0 °F 92% 29.95 in 10.0 mi SSE 9.2 mph - 0.00 in   Mostly Cloudy
8:58 PM 55.8 °F 52.9 °F 90% 29.97 in 10.0 mi South 13.8 mph 18.4 mph N/A   Mostly Cloudy
9:58 PM 54.9 °F 52.2 °F 91% 29.96 in 10.0 mi SSE 6.9 mph - N/A   Partly Cloudy
10:58 PM 54.9 °F 52.2 °F 91% 29.94 in 9.0 mi SSE 6.9 mph - N/A   Scattered Clouds
11:58 PM 54.7 °F 52.2 °F 91% 29.91 in 10.0 mi South 8.1 mph - N/A   Scattered Clouds